Location: Stilling
(56.0622°N, 9.9882°E)
Time: 23:49:49
(UTC+00:00)

Meteor 2-3 Rocket - Pass Details

Date: 13 July 2020
Orbit: 843 x 884 km, 81.2° (Epoch: 14 August)

Event Time Altitude Azimuth Distance (km) Brightness Sun altitude
Exits shadow 22:15:35 12° 184° (S) 2,354 5.4 -10.9°
Maximum altitude 22:20:52 75° 101° (E) 906 3.8 -11.1°
Drops below altitude 10° 22:26:38 10° 17° (NNE) 2,545 7.2 -11.3°
Sets 22:29:06 0° 16° (NNE) 3,493 8.1 -11.4°
